Location: Warszawa
(52.2500°N, 21.0000°E)
Time: 10:20:29
(UTC+01:00)

Vanguard 3 - All Passes

Search period start: 31 January 2023 00:00
Search period end: 10 February 2023 00:00
Orbit: 509 x 3252 km, 33.4° (Epoch: 30 January)

Date Brightness Start Highest point End Pass type
(mag) Time Alt. Az. Time Alt. Az. Time Alt. Az.
31 Jan - 01:22:58 10° WSW 01:35:35 23° SW 01:48:25 10° S visible
31 Jan - 17:36:04 10° SSE 17:41:49 15° SE 17:49:01 10° ESE visible
31 Jan - 19:42:20 10° SW 19:52:42 32° SSE 20:07:23 10° ESE visible
31 Jan - 21:52:36 10° WSW 22:05:36 38° S 22:22:29 10° SE visible
01 Feb - 00:05:27 10° WSW 00:19:06 29° SSW 00:34:16 10° SSE visible
01 Feb - 02:24:22 10° WSW 02:31:25 13° SW 02:38:29 10° SSW night (unlit)
01 Feb - 18:28:58 10° SSW 18:37:09 24° SSE 18:48:39 10° ESE visible
01 Feb - 20:37:44 10° SW 20:49:03 37° S 21:05:00 10° ESE visible
01 Feb - 22:49:09 10° WSW 23:02:22 34° SSW 23:18:38 10° SE visible
02 Feb - 01:03:56 10° WSW 01:15:24 21° SW 01:27:34 10° S night (unlit)
02 Feb - 17:17:06 10° SSE 17:22:18 15° SE 17:28:49 10° ESE visible
02 Feb - 19:23:33 10° SW 19:33:01 32° SSE 19:46:52 10° ESE visible
02 Feb - 21:33:42 10° WSW 21:45:41 36° S 22:01:55 10° SE visible
02 Feb - 23:46:26 10° WSW 23:58:59 27° SSW 00:13:33 10° SSE visible
03 Feb - 02:07:09 10° WSW 02:11:17 11° SW 02:15:29 10° SW night (unlit)
03 Feb - 18:10:12 10° SSW 18:17:38 24° SSE 18:28:13 10° ESE visible
03 Feb - 20:18:57 10° SW 20:29:19 35° S 20:44:23 10° ESE visible
03 Feb - 22:30:15 10° WSW 22:42:23 32° SSW 22:57:55 10° SE visible
04 Feb - 00:45:14 10° WSW 00:55:17 18° SW 01:06:16 10° S night (unlit)
04 Feb - 16:58:20 10° S 17:02:53 15° SE 17:08:35 10° ESE visible
04 Feb - 19:04:51 10° SW 19:13:27 30° SSE 19:26:17 10° ESE visible
04 Feb - 21:14:56 10° WSW 21:25:52 34° S 21:41:11 10° SE visible
04 Feb - 23:27:37 10° WSW 23:38:57 24° SSW 23:52:31 10° SSE visible
05 Feb - 17:51:32 10° SSW 17:58:13 23° SSE 18:07:46 10° ESE visible
05 Feb - 20:00:17 10° SW 20:09:42 33° S 20:23:41 10° ESE visible
05 Feb - 22:11:30 10° WSW 22:22:30 29° SSW 22:36:59 10° SSE visible
06 Feb - 00:26:58 10° WSW 00:35:14 15° SW 00:44:24 10° S night (unlit)
06 Feb - 16:39:41 10° S 16:43:34 14° SE 16:48:21 10° ESE daylight
06 Feb - 18:46:16 10° SW 18:54:01 29° SSE 19:05:41 10° ESE visible
06 Feb - 20:56:17 10° WSW 21:06:10 31° S 21:20:19 10° SE visible
06 Feb - 23:09:03 10° WSW 23:19:01 21° SSW 23:31:09 10° SSE visible
07 Feb - 17:32:59 10° SSW 17:38:55 21° SSE 17:47:20 10° ESE visible
07 Feb - 19:41:43 10° SW 19:50:12 30° S 20:02:54 10° SE visible
07 Feb - 21:52:55 10° WSW 22:02:43 26° SSW 22:15:50 10° SSE visible
08 Feb - 00:09:30 10° WSW 00:15:17 13° SW 00:21:38 10° SSW visible
08 Feb - 16:21:12 10° SSE 16:24:21 13° SE 16:28:08 10° ESE daylight
08 Feb - 18:27:46 10° SW 18:34:41 26° SSE 18:45:04 10° ESE visible
08 Feb - 20:37:46 10° WSW 20:46:35 28° S 20:59:19 10° SE visible
08 Feb - 22:50:48 10° WSW 22:59:10 18° SSW 23:09:25 10° S visible
09 Feb - 17:14:32 10° SSW 17:19:43 20° SSE 17:26:57 10° ESE visible
09 Feb - 19:23:17 10° SW 19:30:48 28° S 19:42:04 10° SE visible
09 Feb - 21:34:33 10° WSW 21:43:04 22° SSW 21:54:27 10° SSE visible
